NOAA 16 DEB, 41504

Orbit data source: Space-Track

NOAA 16 DEB, 41504 is space debris in SSO originally from a launch on Thu, 21 Sep 2000 UTC launched from the Air Force Western Test Range (AFWTR). Debris objects in space refer to the collection of defunct objects orbiting the Earth. Examples of debris include non-operational satellites, rocket bodies, and fragments generated from explosions, collisions, or faulty payload assembly.

Loading next visibility...
Identifier
41504, 2000-055MC
Orbit
SSO
Country
Flag of USUS
Related business
Manufacturer
Unknown
Mission
Spacecraft
Bus & Motor
Unknown
Mass
Unknown
Launch date (UTC)
2000-09-21 (25 years ago)
Launch vehicle
Unknown
Launch site
Air Force Western Test Range (AFWTR)
Object type
Payload
Rocket body
Debris
Shape & HBR
Unknown shape, 0.1 m
Radar Cross Section
Small (<0.1 m²)

Expand to show TLE details & history
Last TLE update: 2 days ago

TLE from 2 days ago
0 NOAA 16 DEB
1 41504U 00055MC  25345.03398403  .00007733  00000-0  32755-2 0  9997
2 41504  98.7708  52.2346 0027485 305.5704  54.2914 14.25490634504672
Epoch: 2025-12-11T00:48Z
TLE epoch observation values (Epoch: 2025-12-11T00:48:56.220Z)
Latitude
Longitude
-39.99541°
Altitude
798.271 km
Speed
7.46 km/s
True Right ascension
03h 28m 56s
True Declination
0° 00' 00"
Sunlit
Object was in full shadow at epoch
Visualization orbit readout
Latitude
Unknown
Longitude
Unknown
Altitude
Unknown
Speed
Unknown
Apparent Right ascension
Unknown
Apparent Declination
Unknown
Sunlit
N/A
Visualization observer readout
Local Sidereal Time
06:12:29
Azimuth
Unknown
Elevation
Unknown
Doppler factor
Unknown
Orbital elements
Apogee altitude
823.738 km
Perigee altitude
784.258 km
Semi-major axis
7,182.135 km
Eccentricity
0.00275
Inclination
98.7708°
RAAN
52.2346°
Arg. of periapsis
305.5704°
True anomaly
54.54766°
Mean anomaly
54.2914°
Eccentric anomaly
54.41948°
Mean motion
3.56585 °/min
Orbital period
100.96 mins
BSTAR
0.0032755
Loading maneuver chart data...
Computing Atmospheric mass density...
Loading historical data...
Loading historical data...
Loading historical data...
Loading historical data...
Loading historical data...
Loading historical data...
Loading historical data...

Documentation

Showing up to 5 results
|